| time (UTC) | temp F | wind direction | speed MPH | gust MPH | rain 1hr in | rain 24hr in | rain mn in | humidity % | barometer mb |
| 20260902104004 | 65 | 293 | 2.0 | 10.0 | 0.00 | 0.28 | 0.18 | 83 | 1017.4 |
| 20260902103503 | 65 | 279 | 2.0 | 7.0 | 0.00 | 0.28 | 0.18 | 83 | 1017.3 |
| 20260902103024 | 64 | 271 | 2.0 | 8.0 | 0.00 | 0.28 | 0.18 | 86 | 1017.3 |
| 20260902102503 | 62 | 286 | 2.0 | 9.0 | 0.00 | 0.28 | 0.18 | 91 | 1017.4 |
| 20260902102004 | 61 | 285 | 2.0 | 9.0 | 0.00 | 0.28 | 0.18 | 89 | 1017.4 |
| 20260902101504 | 62 | 266 | 2.0 | 6.0 | 0.02 | 0.28 | 0.18 | 89 | 1017.4 |
| 20260902101004 | 63 | 276 | 2.0 | 7.0 | 0.03 | 0.28 | 0.18 | 89 | 1017.4 |
| 20260902100503 | 63 | 339 | 3.0 | 8.0 | 0.03 | 0.28 | 0.18 | 88 | 1017.4 |
| 20260902100004 | 64 | 16 | 2.0 | 8.0 | 0.03 | 0.28 | 0.18 | 89 | 1017.3 |
| 20260902095525 | 64 | 15 | 2.0 | 8.0 | 0.03 | 0.28 | 0.18 | 92 | 1017.4 |
| 20260902095004 | 64 | 52 | 2.0 | 8.0 | 0.03 | 0.28 | 0.18 | 92 | 1017.3 |
| 20260902094524 | 64 | 82 | 2.0 | 6.0 | 0.03 | 0.28 | 0.18 | 93 | 1017.3 |
| 20260902094004 | 64 | 75 | 2.0 | 6.0 | 0.03 | 0.28 | 0.18 | 97 | 1017.3 |
| 20260902093503 | 62 | 66 | 2.0 | 6.0 | 0.03 | 0.28 | 0.18 | 97 | 1017.4 |
| 20260902093004 | 61 | 67 | 1.0 | 4.0 | 0.03 | 0.28 | 0.18 | 96 | 1017.2 |
| 20260902092505 | 61 | 77 | 2.0 | 4.0 | 0.03 | 0.28 | 0.18 | 95 | 1017.2 |
| 20260902092006 | 61 | 94 | 2.0 | 6.0 | 0.03 | 0.28 | 0.18 | 94 | 1017.4 |
| 20260902091526 | 62 | 82 | 2.0 | 6.0 | 0.01 | 0.26 | 0.16 | 94 | 1017.3 |
| 20260902091006 | 62 | 44 | 2.0 | 4.0 | 0.00 | 0.25 | 0.15 | 94 | 1017.1 |
| 20260902090504 | 61 | 52 | 1.0 | 4.0 | 0.00 | 0.25 | 0.15 | 93 | 1017.1 |
| 20260902090005 | 61 | 62 | 1.0 | 4.0 | 0.00 | 0.25 | 0.15 | 93 | 1017.2 |
| 20260902085505 | 61 | 71 | 2.0 | 4.0 | 0.00 | 0.25 | 0.15 | 92 | 1017.3 |
| 20260902085004 | 62 | 73 | 2.0 | 6.0 | 0.00 | 0.25 | 0.15 | 93 | 1017.2 |
| 20260902084505 | 62 | 79 | 2.0 | 6.0 | 0.00 | 0.25 | 0.15 | 93 | 1017.0 |
| 20260902084004 | 62 | 99 | 2.0 | 4.0 | 0.00 | 0.25 | 0.15 | 93 | 1017.1 |
| 20260902083504 | 62 | 101 | 2.0 | 4.0 | 0.00 | 0.25 | 0.15 | 94 | 1017.1 |
| 20260902083005 | 62 | 97 | 3.0 | 6.0 | 0.00 | 0.25 | 0.15 | 91 | 1017.1 |
| 20260902082504 | 63 | 98 | 3.0 | 7.0 | 0.00 | 0.25 | 0.15 | 91 | 1016.9 |
| 20260902082005 | 64 | 95 | 3.0 | 7.0 | 0.00 | 0.25 | 0.15 | 92 | 1016.9 |
| 20260902081505 | 62 | 78 | 2.0 | 7.0 | 0.00 | 0.25 | 0.15 | 93 | 1017.0 |
| 20260902081005 | 62 | 73 | 2.0 | 6.0 | 0.00 | 0.25 | 0.15 | 92 | 1017.0 |
| 20260902080504 | 63 | 82 | 2.0 | 6.0 | 0.00 | 0.25 | 0.15 | 93 | 1016.7 |
| 20260902080005 | 62 | 75 | 2.0 | 6.0 | 0.00 | 0.25 | 0.15 | 95 | 1016.9 |
| 20260902075505 | 62 | 74 | 2.0 | 6.0 | 0.00 | 0.25 | 0.15 | 95 | 1017.1 |
| 20260902075027 | 62 | 76 | 2.0 | 6.0 | 0.00 | 0.25 | 0.15 | 96 | 1016.7 |
| 20260902074505 | 61 | 87 | 1.0 | 3.0 | 0.00 | 0.25 | 0.15 | 97 | 1016.8 |
| 20260902074006 | 61 | 84 | 2.0 | 4.0 | 0.00 | 0.25 | 0.15 | 97 | 1016.9 |
| 20260902073504 | 61 | 76 | 2.0 | 4.0 | 0.00 | 0.25 | 0.15 | 98 | 1016.7 |
| 20260902073004 | 61 | 76 | 2.0 | 4.0 | 0.00 | 0.25 | 0.15 | 98 | 1016.6 |
| 20260902072525 | 61 | 82 | 2.0 | 4.0 | 0.00 | 0.25 | 0.15 | 98 | 1016.8 |
| 20260902072006 | 61 | 85 | 2.0 | 3.0 | 0.00 | 0.25 | 0.15 | 97 | 1016.8 |
| 20260902071505 | 61 | 88 | 2.0 | 4.0 | 0.00 | 0.25 | 0.15 | 98 | 1016.5 |
| 20260902071004 | 61 | 83 | 2.0 | 4.0 | 0.00 | 0.25 | 0.15 | 98 | 1016.5 |
| 20260902070504 | 61 | 75 | 2.0 | 6.0 | 0.00 | 0.25 | 0.15 | 99 | 1016.5 |
| 20260902070007 | 61 | 78 | 2.0 | 6.0 | 0.00 | 0.25 | 0.15 | 99 | 1016.5 |
| 20260902065504 | 61 | 83 | 2.0 | 6.0 | 0.00 | 0.25 | 0.15 | 99 | 1016.2 |
| 20260902065005 | 60 | 87 | 2.0 | 6.0 | 0.00 | 0.25 | 0.15 | 99 | 1016.3 |
| 20260902064505 | 60 | 81 | 2.0 | 6.0 | 0.00 | 0.25 | 0.15 | 99 | 1016.2 |
| 20260902064026 | 60 | 75 | 2.0 | 6.0 | 0.00 | 0.25 | 0.15 | 99 | 1016.2 |
| 20260902063504 | 59 | 83 | 2.0 | 4.0 | 0.00 | 0.25 | 0.15 | 99 | 1016.2 |
| 20260902063005 | 59 | 100 | 1.0 | 4.0 | 0.00 | 0.25 | 0.15 | 99 | 1016.1 |
| 20260902062504 | 59 | 91 | 1.0 | 4.0 | 0.00 | 0.25 | 0.15 | 99 | 1016.2 |
| 20260902062005 | 59 | 73 | 2.0 | 4.0 | 0.00 | 0.25 | 0.15 | 99 | 1016.2 |
| 20260902061547 | 60 | 70 | 2.0 | 4.0 | 0.00 | 0.25 | 0.15 | 99 | 1016.1 |
| 20260902061004 | 60 | 70 | 2.0 | 4.0 | 0.00 | 0.25 | 0.15 | 99 | 1015.9 |
| 20260902060505 | 60 | 70 | 2.0 | 3.0 | 0.00 | 0.24 | 0.15 | 99 | 1016.1 |
| 20260902060005 | 59 | 74 | 2.0 | 4.0 | 0.00 | 0.24 | 0.15 | 99 | 1016.0 |
| 20260902055504 | 59 | 78 | 2.0 | 4.0 | 0.00 | 0.24 | 0.15 | 99 | 1015.9 |
| 20260902055027 | 59 | 82 | 2.0 | 4.0 | 0.00 | 0.24 | 0.15 | 99 | 1015.8 |
| 20260902054505 | 59 | 82 | 2.0 | 6.0 | 0.00 | 0.24 | 0.15 | 99 | 1015.8 |
| 20260902054006 | 59 | 79 | 2.0 | 6.0 | 0.00 | 0.25 | 0.15 | 99 | 1015.9 |
| 20260902053505 | 59 | 77 | 2.0 | 4.0 | 0.00 | 0.26 | 0.15 | 99 | 1015.7 |
| 20260902053004 | 59 | 72 | 2.0 | 3.0 | 0.01 | 0.27 | 0.15 | 99 | 1015.8 |
| 20260902052505 | 59 | 67 | 1.0 | 3.0 | 0.02 | 0.27 | 0.15 | 99 | 1015.7 |
| 20260902052004 | 58 | 66 | 1.0 | 3.0 | 0.02 | 0.28 | 0.15 | 99 | 1015.7 |
| 20260902051505 | 58 | 64 | 1.0 | 3.0 | 0.02 | 0.28 | 0.15 | 99 | 1015.8 |
| 20260902051004 | 58 | 65 | 1.0 | 3.0 | 0.02 | 0.29 | 0.15 | 99 | 1015.5 |
| 20260902050504 | 58 | 68 | 1.0 | 3.0 | 0.02 | 0.29 | 0.15 | 99 | 1015.6 |
| 20260902050026 | 58 | 69 | 1.0 | 3.0 | 0.02 | 0.29 | 0.15 | 99 | 1015.5 |
| 20260902045504 | 58 | 68 | 1.0 | 3.0 | 0.02 | 0.29 | 0.15 | 99 | 1015.5 |
| 20260902045006 | 58 | 72 | 1.0 | 4.0 | 0.02 | 0.29 | 0.15 | 99 | 1015.5 |
| 20260902044505 | 58 | 75 | 2.0 | 4.0 | 0.02 | 0.29 | 0.15 | 99 | 1015.4 |
| 20260902044006 | 58 | 82 | 2.0 | 4.0 | 0.03 | 0.29 | 0.15 | 99 | 1015.5 |
| 20260902043526 | 58 | 83 | 2.0 | 4.0 | 0.02 | 0.28 | 0.14 | 99 | 1015.3 |
| 20260902043025 | 58 | 81 | 2.0 | 4.0 | 0.02 | 0.28 | 0.14 | 99 | 1015.4 |
| 20260902042505 | 58 | 86 | 2.0 | 4.0 | 0.01 | 0.27 | 0.13 | 99 | 1015.4 |
| 20260902042005 | 58 | 93 | 2.0 | 6.0 | 0.01 | 0.27 | 0.13 | 99 | 1015.2 |
| 20260902041505 | 58 | 97 | 2.0 | 6.0 | 0.01 | 0.27 | 0.13 | 99 | 1015.3 |
| 20260902041005 | 58 | 91 | 2.0 | 4.0 | 0.02 | 0.27 | 0.13 | 99 | 1015.1 |
| 20260902040505 | 58 | 85 | 2.0 | 3.0 | 0.03 | 0.27 | 0.13 | 99 | 1015.4 |
| 20260902040005 | 58 | 86 | 2.0 | 3.0 | 0.03 | 0.28 | 0.13 | 99 | 1015.3 |
| 20260902035505 | 58 | 92 | 2.0 | 6.0 | 0.04 | 0.29 | 0.13 | 99 | 1015.2 |
| 20260902035005 | 58 | 94 | 2.0 | 6.0 | 0.05 | 0.30 | 0.13 | 99 | 1015.1 |
| 20260902034505 | 58 | 92 | 2.0 | 3.0 | 0.06 | 0.32 | 0.12 | 99 | 1015.2 |
| 20260902034004 | 58 | 93 | 2.0 | 3.0 | 0.06 | 0.33 | 0.12 | 99 | 1015.2 |
| 20260902033505 | 58 | 92 | 1.0 | 3.0 | 0.06 | 0.34 | 0.12 | 99 | 1014.9 |
| 20260902033005 | 58 | 87 | 1.0 | 3.0 | 0.06 | 0.36 | 0.12 | 99 | 1015.1 |
| 20260902032505 | 58 | 78 | 1.0 | 3.0 | 0.06 | 0.40 | 0.12 | 99 | 1015.2 |
| 20260902032005 | 58 | 69 | 1.0 | 3.0 | 0.06 | 0.48 | 0.12 | 99 | 1015.1 |
| 20260902031504 | 59 | 66 | 1.0 | 3.0 | 0.06 | 0.61 | 0.12 | 99 | 1015.1 |
| 20260902031005 | 59 | 69 | 1.0 | 3.0 | 0.06 | 0.63 | 0.11 | 99 | 1015.1 |
| 20260902030505 | 59 | 74 | 1.0 | 2.0 | 0.05 | 0.63 | 0.10 | 99 | 1015.1 |
| 20260902030004 | 59 | 76 | 1.0 | 2.0 | 0.06 | 0.62 | 0.09 | 99 | 1015.2 |
| 20260902025526 | 59 | 78 | 1.0 | 2.0 | 0.06 | 0.61 | 0.09 | 99 | 1015.2 |
| 20260902025026 | 59 | 89 | 1.0 | 3.0 | 0.06 | 0.61 | 0.08 | 99 | 1015.3 |
| 20260902024504 | 59 | 88 | 1.0 | 3.0 | 0.05 | 0.59 | 0.07 | 99 | 1015.2 |
| 20260902024004 | 59 | 81 | 1.0 | 3.0 | 0.04 | 0.59 | 0.06 | 99 | 1015.2 |
| 20260902023504 | 58 | 71 | 1.0 | 3.0 | 0.04 | 0.59 | 0.06 | 99 | 1014.9 |
| 20260902023005 | 58 | 76 | 1.0 | 3.0 | 0.04 | 0.59 | 0.06 | 99 | 1014.9 |
| 20260902022504 | 58 | 86 | 2.0 | 3.0 | 0.04 | 0.59 | 0.06 | 99 | 1015.1 |
| 20260902022005 | 58 | 82 | 2.0 | 3.0 | 0.04 | 0.59 | 0.06 | 99 | 1014.8 |
| 20260902021504 | 59 | 83 | 2.0 | 3.0 | 0.04 | 0.59 | 0.06 | 99 | 1015.1 |
| 20260902021005 | 59 | 85 | 2.0 | 3.0 | 0.04 | 0.58 | 0.06 | 99 | 1014.8 |
| 20260902020525 | 59 | 81 | 2.0 | 3.0 | 0.04 | 0.58 | 0.06 | 99 | 1014.9 |
| 20260902020004 | 59 | 83 | 2.0 | 3.0 | 0.01 | 0.56 | 0.03 | 99 | 1014.9 |
| 20260902015526 | 59 | 82 | 1.0 | 3.0 | 0.01 | 0.56 | 0.03 | 99 | 1014.9 |
| 20260902015004 | 59 | 89 | 1.0 | 4.0 | 0.00 | 0.55 | 0.02 | 99 | 1014.9 |
| 20260902014504 | 59 | 100 | 2.0 | 4.0 | 0.00 | 0.55 | 0.02 | 99 | 1015.1 |
| 20260902014005 | 59 | 97 | 2.0 | 4.0 | 0.00 | 0.55 | 0.02 | 99 | 1015.1 |
| 20260902013504 | 59 | 92 | 2.0 | 4.0 | 0.00 | 0.55 | 0.02 | 99 | 1014.9 |
| 20260902013005 | 59 | 91 | 2.0 | 4.0 | 0.00 | 0.55 | 0.02 | 99 | 1014.9 |
| 20260902012504 | 59 | 94 | 2.0 | 4.0 | 0.01 | 0.55 | 0.02 | 99 | 1014.8 |
| 20260902012005 | 59 | 94 | 2.0 | 4.0 | 0.01 | 0.55 | 0.02 | 99 | 1014.7 |
| 20260902011504 | 59 | 92 | 2.0 | 4.0 | 0.01 | 0.55 | 0.02 | 99 | 1014.9 |
| 20260902011005 | 59 | 96 | 2.0 | 4.0 | 0.01 | 0.55 | 0.02 | 99 | 1014.8 |
| 20260902010504 | 59 | 90 | 2.0 | 4.0 | 0.01 | 0.55 | 0.02 | 99 | 1014.9 |
| 20260902010004 | 59 | 88 | 2.0 | 4.0 | 0.01 | 0.55 | 0.02 | 99 | 1014.8 |
| 20260902005504 | 59 | 90 | 2.0 | 4.0 | 0.02 | 0.55 | 0.02 | 99 | 1014.8 |
| 20260902005005 | 59 | 84 | 2.0 | 4.0 | 0.02 | 0.55 | 0.02 | 99 | 1014.9 |
| 20260902004504 | 59 | 71 | 1.0 | 3.0 | 0.02 | 0.55 | 0.02 | 99 | 1014.9 |
| 20260902004006 | 59 | 73 | 1.0 | 4.0 | 0.02 | 0.55 | 0.02 | 99 | 1014.8 |
| 20260902003505 | 59 | 91 | 2.0 | 4.0 | 0.02 | 0.55 | 0.02 | 99 | 1014.6 |
| 20260902003005 | 59 | 93 | 2.0 | 3.0 | 0.01 | 0.54 | 0.02 | 99 | 1014.8 |
| 20260902002505 | 59 | 87 | 2.0 | 4.0 | 0.00 | 0.54 | 0.01 | 99 | 1014.8 |
| 20260902002004 | 59 | 80 | 1.0 | 4.0 | 0.00 | 0.54 | 0.01 | 99 | 1014.8 |
| 20260902001525 | 59 | 76 | 1.0 | 3.0 | 0.00 | 0.54 | 0.01 | 99 | 1014.7 |
| 20260902001004 | 59 | 78 | 2.0 | 4.0 | 0.00 | 0.54 | 0.01 | 99 | 1014.5 |
| 20260902000504 | 59 | 85 | 2.0 | 4.0 | 0.00 | 0.54 | 0.01 | 99 | 1014.8 |
| 20260902000004 | 59 | 86 | 2.0 | 4.0 | 0.00 | 0.54 | 0.01 | 99 | 1014.8 |
| 20260901235505 | 59 | 79 | 1.0 | 4.0 | 0.00 | 0.53 | 0.00 | 99 | 1014.8 |
| 20260901235025 | 59 | 80 | 1.0 | 3.0 | 0.00 | 0.53 | 0.00 | 99 | 1014.8 |
| 20260901234504 | 59 | 91 | 2.0 | 3.0 | 0.00 | 0.53 | 0.00 | 99 | 1014.8 |
| 20260901234004 | 59 | 90 | 2.0 | 3.0 | 0.00 | 0.53 | 0.00 | 99 | 1014.9 |
| 20260901233504 | 59 | 88 | 1.0 | 3.0 | 0.00 | 0.53 | 0.00 | 99 | 1014.9 |
| 20260901233005 | 59 | 87 | 1.0 | 3.0 | 0.00 | 0.53 | 0.00 | 99 | 1014.9 |
| 20260901232505 | 59 | 87 | 1.0 | 3.0 | 0.00 | 0.53 | 0.00 | 99 | 1014.8 |
| 20260901232005 | 59 | 84 | 1.0 | 2.0 | 0.00 | 0.53 | 0.00 | 99 | 1014.8 |
| 20260901231504 | 58 | 82 | 0.0 | 2.0 | 0.00 | 0.53 | 0.00 | 99 | 1014.8 |
| 20260901231004 | 58 | 84 | 0.0 | 2.0 | 0.00 | 0.53 | 0.00 | 99 | 1014.8 |
| 20260901230526 | 58 | 82 | 0.0 | 2.0 | 0.00 | 0.53 | 0.00 | 99 | 1014.7 |
| 20260901230005 | 58 | 79 | 1.0 | 2.0 | 0.00 | 0.53 | 0.00 | 99 | 1014.5 |
| 20260901225504 | 59 | 81 | 1.0 | 2.0 | 0.00 | 0.53 | 0.00 | 99 | 1014.9 |
| 20260901225004 | 58 | 87 | 1.0 | 3.0 | 0.00 | 0.53 | 0.00 | 99 | 1014.8 |
| 20260901224504 | 58 | 86 | 1.0 | 3.0 | 0.00 | 0.53 | 0.00 | 99 | 1014.9 |
| 20260901224004 | 58 | 81 | 1.0 | 2.0 | 0.00 | 0.53 | 0.00 | 99 | 1014.8 |
| 20260901223504 | 58 | 84 | 1.0 | 2.0 | 0.00 | 0.53 | 0.00 | 99 | 1014.9 |
| 20260901223025 | 58 | 87 | 1.0 | 2.0 | 0.00 | 0.53 | 0.00 | 99 | 1014.8 |
| 20260901222504 | 59 | 75 | 1.0 | 2.0 | 0.00 | 0.53 | 0.00 | 99 | 1014.9 |
| 20260901222004 | 59 | 57 | 1.0 | 3.0 | 0.00 | 0.53 | 0.00 | 99 | 1014.8 |
| 20260901221505 | 59 | 54 | 1.0 | 3.0 | 0.00 | 0.53 | 0.00 | 99 | 1014.7 |
| 20260901221025 | 58 | 66 | 1.0 | 2.0 | 0.00 | 0.53 | 0.00 | 98 | 1014.5 |
| 20260901220526 | 58 | 82 | 1.0 | 3.0 | 0.00 | 0.53 | 0.00 | 98 | 1014.7 |
| 20260901220006 | 59 | 90 | 1.0 | 3.0 | 0.00 | 0.53 | 0.00 | 98 | 1014.8 |
| 20260901215504 | 59 | 70 | 1.0 | 3.0 | 0.00 | 0.53 | 0.53 | 98 | 1014.6 |
| 20260901215005 | 59 | 48 | 1.0 | 3.0 | 0.00 | 0.53 | 0.53 | 98 | 1014.9 |
| 20260901214525 | 60 | 45 | 1.0 | 3.0 | 0.00 | 0.53 | 0.53 | 98 | 1014.7 |
| 20260901214005 | 60 | 55 | 1.0 | 3.0 | 0.00 | 0.53 | 0.53 | 98 | 1014.7 |
| 20260901213504 | 60 | 77 | 1.0 | 4.0 | 0.00 | 0.53 | 0.53 | 99 | 1014.7 |
| 20260901213005 | 59 | 78 | 1.0 | 4.0 | 0.00 | 0.53 | 0.53 | 99 | 1014.7 |
| 20260901212504 | 59 | 51 | 1.0 | 3.0 | 0.00 | 0.53 | 0.53 | 99 | 1014.8 |
| 20260901212004 | 59 | 20 | 1.0 | 4.0 | 0.00 | 0.53 | 0.53 | 99 | 1014.6 |
| 20260901211526 | 59 | 16 | 1.0 | 4.0 | 0.00 | 0.53 | 0.53 | 98 | 1014.7 |
| 20260901211004 | 59 | 45 | 1.0 | 3.0 | 0.00 | 0.53 | 0.53 | 99 | 1014.7 |
| 20260901210504 | 59 | 63 | 1.0 | 2.0 | 0.00 | 0.53 | 0.53 | 98 | 1014.6 |
| 20260901210025 | 59 | 64 | 1.0 | 3.0 | 0.00 | 0.53 | 0.53 | 98 | 1014.7 |
| 20260901205504 | 59 | 63 | 1.0 | 3.0 | 0.00 | 0.53 | 0.53 | 99 | 1014.6 |
| 20260901205005 | 59 | 68 | 1.0 | 2.0 | 0.00 | 0.53 | 0.53 | 98 | 1014.6 |
| 20260901204526 | 59 | 75 | 1.0 | 3.0 | 0.03 | 0.53 | 0.53 | 98 | 1014.5 |
| 20260901204004 | 59 | 74 | 1.0 | 3.0 | 0.03 | 0.53 | 0.53 | 98 | 1014.5 |
| 20260901203504 | 59 | 73 | 1.0 | 3.0 | 0.04 | 0.53 | 0.53 | 98 | 1014.5 |
| 20260901203026 | 59 | 73 | 1.0 | 2.0 | 0.04 | 0.53 | 0.53 | 98 | 1014.5 |
| 20260901202504 | 59 | 73 | 1.0 | 2.0 | 0.05 | 0.53 | 0.53 | 98 | 1014.4 |
| 20260901202005 | 59 | 73 | 1.0 | 3.0 | 0.05 | 0.53 | 0.53 | 98 | 1014.4 |
| 20260901201526 | 59 | 76 | 1.0 | 3.0 | 0.05 | 0.53 | 0.53 | 98 | 1014.2 |
| 20260901201004 | 59 | 76 | 1.0 | 3.0 | 0.05 | 0.53 | 0.53 | 97 | 1014.3 |
| 20260901200504 | 59 | 74 | 1.0 | 3.0 | 0.05 | 0.53 | 0.53 | 97 | 1014.5 |
| 20260901200005 | 60 | 77 | 1.0 | 3.0 | 0.05 | 0.53 | 0.53 | 97 | 1014.5 |
| 20260901195505 | 60 | 69 | 1.0 | 4.0 | 0.05 | 0.53 | 0.53 | 97 | 1014.3 |
| 20260901195004 | 60 | 44 | 1.0 | 4.0 | 0.04 | 0.52 | 0.52 | 97 | 1014.4 |
| 20260901194525 | 60 | 45 | 1.0 | 3.0 | 0.02 | 0.50 | 0.50 | 96 | 1014.5 |
| 20260901194025 | 60 | 53 | 1.0 | 2.0 | 0.02 | 0.50 | 0.50 | 96 | 1014.4 |
| 20260901193504 | 60 | 54 | 1.0 | 2.0 | 0.01 | 0.49 | 0.49 | 96 | 1014.4 |
| 20260901193026 | 60 | 57 | 1.0 | 2.0 | 0.00 | 0.48 | 0.48 | 95 | 1014.3 |
| 20260901192504 | 60 | 55 | 1.0 | 2.0 | 0.00 | 0.48 | 0.48 | 94 | 1014.6 |
| 20260901192005 | 60 | 49 | 1.0 | 2.0 | 0.00 | 0.48 | 0.48 | 94 | 1014.4 |
| 20260901191504 | 60 | 48 | 1.0 | 4.0 | 0.00 | 0.48 | 0.48 | 93 | 1014.3 |
| 20260901191004 | 60 | 49 | 1.0 | 4.0 | 0.00 | 0.48 | 0.48 | 93 | 1014.4 |
| 20260901190504 | 60 | 51 | 1.0 | 4.0 | 0.00 | 0.48 | 0.48 | 93 | 1014.2 |
| 20260901190004 | 60 | 60 | 1.0 | 3.0 | 0.00 | 0.48 | 0.48 | 93 | 1014.3 |
| 20260901185504 | 60 | 52 | 1.0 | 2.0 | 0.00 | 0.48 | 0.48 | 94 | 1014.2 |
| 20260901185004 | 60 | 31 | 1.0 | 3.0 | 0.00 | 0.48 | 0.48 | 94 | 1014.3 |
| 20260901184525 | 60 | 46 | 1.0 | 3.0 | 0.00 | 0.48 | 0.48 | 94 | 1014.3 |
| 20260901184005 | 60 | 73 | 1.0 | 3.0 | 0.00 | 0.48 | 0.48 | 94 | 1014.1 |
| 20260901183504 | 60 | 100 | 1.0 | 3.0 | 0.00 | 0.48 | 0.48 | 93 | 1014.2 |
| 20260901183005 | 60 | 92 | 1.0 | 2.0 | 0.00 | 0.48 | 0.48 | 92 | 1014.3 |
| 20260901182505 | 61 | 63 | 1.0 | 3.0 | 0.00 | 0.48 | 0.48 | 92 | 1013.9 |
| 20260901182004 | 61 | 48 | 1.0 | 3.0 | 0.00 | 0.48 | 0.48 | 91 | 1014.0 |
| 20260901181504 | 61 | 49 | 1.0 | 3.0 | 0.00 | 0.48 | 0.48 | 91 | 1014.0 |
| 20260901181025 | 61 | 32 | 1.0 | 3.0 | 0.00 | 0.48 | 0.48 | 91 | 1013.9 |
| 20260901180505 | 61 | 41 | 1.0 | 3.0 | 0.00 | 0.48 | 0.48 | 92 | 1013.9 |
| 20260901180004 | 61 | 54 | 1.0 | 3.0 | 0.00 | 0.48 | 0.48 | 92 | 1013.9 |
| 20260901175504 | 61 | 51 | 1.0 | 3.0 | 0.00 | 0.48 | 0.48 | 92 | 1014.0 |
| 20260901175004 | 61 | 62 | 1.0 | 3.0 | 0.00 | 0.48 | 0.48 | 91 | 1014.0 |
| 20260901174525 | 61 | 63 | 1.0 | 4.0 | 0.00 | 0.48 | 0.48 | 90 | 1013.9 |
| 20260901174007 | 61 | 62 | 1.0 | 4.0 | 0.00 | 0.48 | 0.48 | 90 | 1013.9 |
| 20260901173505 | 61 | 59 | 1.0 | 3.0 | 0.00 | 0.48 | 0.48 | 90 | 1013.8 |
| 20260901173026 | 62 | 43 | 1.0 | 3.0 | 0.00 | 0.48 | 0.48 | 89 | 1013.7 |
| 20260901172504 | 62 | 30 | 1.0 | 4.0 | 0.00 | 0.48 | 0.48 | 89 | 1013.8 |
| 20260901172026 | 62 | 53 | 2.0 | 4.0 | 0.00 | 0.48 | 0.48 | 89 | 1013.7 |
| 20260901171504 | 62 | 35 | 1.0 | 9.0 | 0.00 | 0.48 | 0.48 | 89 | 1013.6 |
| 20260901171004 | 62 | 11 | 1.0 | 9.0 | 0.00 | 0.48 | 0.48 | 88 | 1013.8 |
| 20260901170505 | 62 | 344 | 1.0 | 3.0 | 0.00 | 0.48 | 0.48 | 88 | 1013.7 |
| 20260901170004 | 62 | 283 | 1.0 | 4.0 | 0.00 | 0.48 | 0.48 | 87 | 1013.7 |
| 20260901165503 | 62 | 299 | 2.0 | 4.0 | 0.00 | 0.48 | 0.48 | 87 | 1013.5 |
| 20260901165004 | 63 | 313 | 2.0 | 6.0 | 0.00 | 0.48 | 0.48 | 86 | 1013.6 |
| 20260901164504 | 63 | 320 | 2.0 | 8.0 | 0.00 | 0.48 | 0.48 | 86 | 1013.7 |
| 20260901164005 | 63 | 332 | 2.0 | 8.0 | 0.00 | 0.48 | 0.48 | 86 | 1013.5 |
| 20260901163504 | 63 | 317 | 1.0 | 6.0 | 0.00 | 0.48 | 0.48 | 86 | 1013.5 |
| 20260901163004 | 63 | 306 | 2.0 | 7.0 | 0.00 | 0.48 | 0.48 | 86 | 1013.6 |
| 20260901162526 | 63 | 309 | 2.0 | 7.0 | 0.00 | 0.48 | 0.48 | 86 | 1013.5 |
| 20260901162005 | 63 | 308 | 2.0 | 10.0 | 0.00 | 0.48 | 0.48 | 86 | 1013.6 |
| 20260901161504 | 63 | 302 | 2.0 | 10.0 | 0.00 | 0.48 | 0.48 | 85 | 1013.5 |
| 20260901161005 | 63 | 312 | 1.0 | 6.0 | 0.00 | 0.48 | 0.48 | 86 | 1013.5 |
| 20260901160505 | 63 | 330 | 2.0 | 6.0 | 0.00 | 0.48 | 0.48 | 85 | 1013.4 |
| 20260901160004 | 63 | 344 | 2.0 | 6.0 | 0.00 | 0.48 | 0.48 | 86 | 1013.5 |
| 20260901155505 | 63 | 324 | 1.0 | 6.0 | 0.00 | 0.48 | 0.48 | 86 | 1013.4 |
| 20260901155004 | 64 | 295 | 1.0 | 7.0 | 0.00 | 0.48 | 0.48 | 87 | 1013.3 |
| 20260901154504 | 63 | 304 | 2.0 | 7.0 | 0.00 | 0.48 | 0.48 | 86 | 1013.3 |
| 20260901154005 | 63 | 334 | 2.0 | 7.0 | 0.00 | 0.48 | 0.48 | 86 | 1013.3 |
| 20260901153526 | 63 | 359 | 2.0 | 6.0 | 0.00 | 0.48 | 0.48 | 85 | 1013.4 |
| 20260901153004 | 63 | 322 | 2.0 | 7.0 | 0.00 | 0.48 | 0.48 | 85 | 1013.3 |
| 20260901152504 | 63 | 299 | 2.0 | 7.0 | 0.00 | 0.48 | 0.48 | 86 | 1013.4 |
| 20260901152005 | 63 | 331 | 2.0 | 6.0 | 0.00 | 0.48 | 0.48 | 85 | 1013.2 |
| 20260901151525 | 63 | 336 | 2.0 | 6.0 | 0.00 | 0.48 | 0.48 | 86 | 1013.2 |
| 20260901151004 | 63 | 328 | 2.0 | 7.0 | 0.00 | 0.48 | 0.48 | 85 | 1013.2 |
| 20260901150503 | 63 | 335 | 2.0 | 7.0 | 0.00 | 0.48 | 0.48 | 86 | 1013.2 |
| 20260901150004 | 64 | 345 | 2.0 | 7.0 | 0.00 | 0.48 | 0.48 | 85 | 1013.0 |
| 20260901145505 | 64 | 342 | 3.0 | 8.0 | 0.00 | 0.48 | 0.48 | 85 | 1013.1 |
| 20260901145005 | 64 | 343 | 3.0 | 8.0 | 0.00 | 0.48 | 0.48 | 83 | 1013.1 |
| 20260901144504 | 65 | 13 | 3.0 | 8.0 | 0.00 | 0.48 | 0.48 | 84 | 1013.0 |
| 20260901144005 | 65 | 23 | 2.0 | 7.0 | 0.00 | 0.48 | 0.48 | 85 | 1012.9 |
| 20260901143505 | 65 | 9 | 2.0 | 7.0 | 0.01 | 0.48 | 0.48 | 84 | 1012.8 |
| 20260901143004 | 64 | 198 | 2.0 | 7.0 | 0.02 | 0.48 | 0.48 | 86 | 1013.0 |
| 20260901142503 | 64 | 290 | 2.0 | 7.0 | 0.02 | 0.48 | 0.48 | 87 | 1012.9 |
| 20260901142004 | 64 | 317 | 1.0 | 9.0 | 0.02 | 0.48 | 0.48 | 89 | 1012.9 |
| 20260901141504 | 64 | 302 | 2.0 | 9.0 | 0.02 | 0.48 | 0.48 | 90 | 1012.8 |
| 20260901141005 | 64 | 293 | 2.0 | 8.0 | 0.02 | 0.48 | 0.48 | 88 | 1012.8 |
| 20260901140525 | 64 | 325 | 2.0 | 8.0 | 0.02 | 0.48 | 0.48 | 89 | 1012.7 |
| 20260901140025 | 65 | 9 | 2.0 | 8.0 | 0.03 | 0.48 | 0.48 | 92 | 1012.7 |
| 20260901135503 | 64 | 322 | 2.0 | 9.0 | 0.04 | 0.48 | 0.48 | 94 | 1012.8 |
| 20260901135005 | 63 | 309 | 2.0 | 9.0 | 0.04 | 0.48 | 0.48 | 93 | 1012.6 |
| 20260901134504 | 62 | 305 | 2.0 | 6.0 | 0.04 | 0.48 | 0.48 | 95 | 1012.8 |
| 20260901134004 | 62 | 322 | 2.0 | 6.0 | 0.04 | 0.48 | 0.48 | 93 | 1012.7 |
| 20260901133503 | 63 | 321 | 1.0 | 4.0 | 0.02 | 0.47 | 0.47 | 93 | 1012.7 |
| 20260901133004 | 63 | 313 | 2.0 | 4.0 | 0.02 | 0.46 | 0.46 | 93 | 1012.7 |
| 20260901132503 | 63 | 322 | 2.0 | 6.0 | 0.02 | 0.46 | 0.46 | 93 | 1012.8 |
| 20260901132005 | 63 | 2 | 2.0 | 7.0 | 0.01 | 0.46 | 0.46 | 93 | 1012.7 |
| 20260901131504 | 63 | 62 | 2.0 | 7.0 | 0.01 | 0.46 | 0.46 | 94 | 1012.9 |
| 20260901131003 | 63 | 73 | 2.0 | 4.0 | 0.01 | 0.46 | 0.46 | 94 | 1012.9 |
| 20260901130505 | 62 | 48 | 2.0 | 7.0 | 0.01 | 0.46 | 0.46 | 93 | 1012.8 |
| 20260901130004 | 63 | 41 | 3.0 | 7.0 | 0.01 | 0.45 | 0.45 | 89 | 1012.9 |
| 20260901125525 | 63 | 77 | 3.0 | 8.0 | 0.00 | 0.44 | 0.44 | 86 | 1012.8 |
| 20260901125005 | 64 | 105 | 3.0 | 8.0 | 0.00 | 0.44 | 0.44 | 84 | 1012.6 |
| 20260901124505 | 65 | 341 | 3.0 | 8.0 | 0.00 | 0.44 | 0.44 | 82 | 1012.8 |
| 20260901124004 | 66 | 29 | 3.0 | 9.0 | 0.00 | 0.44 | 0.44 | 81 | 1012.6 |
| 20260901123504 | 66 | 47 | 3.0 | 9.0 | 0.00 | 0.44 | 0.44 | 81 | 1012.5 |
| 20260901123004 | 67 | 20 | 2.0 | 7.0 | 0.00 | 0.44 | 0.44 | 82 | 1012.5 |
| 20260901122525 | 68 | 4 | 2.0 | 6.0 | 0.00 | 0.44 | 0.44 | 87 | 1012.5 |
| 20260901122004 | 66 | 49 | 2.0 | 6.0 | 0.00 | 0.44 | 0.44 | 86 | 1012.5 |
| 20260901121504 | 65 | 34 | 2.0 | 6.0 | 0.00 | 0.44 | 0.44 | 86 | 1012.4 |
| 20260901121005 | 65 | 335 | 2.0 | 6.0 | 0.00 | 0.44 | 0.44 | 84 | 1012.4 |
| 20260901120112 | 65 | 15 | 1.0 | 3.0 | 0.00 | 0.44 | 0.44 | 87 | 1012.4 |
| 20260901115505 | 65 | 18 | 2.0 | 6.0 | 0.00 | 0.44 | 0.44 | 86 | 1012.5 |
| 20260901115004 | 65 | 40 | 2.0 | 8.0 | 0.00 | 0.44 | 0.44 | 85 | 1012.5 |
| 20260901114503 | 65 | 61 | 3.0 | 8.0 | 0.00 | 0.44 | 0.44 | 85 | 1012.4 |
| 20260901114004 | 66 | 75 | 2.0 | 7.0 | 0.01 | 0.44 | 0.44 | 86 | 1012.3 |
| 20260901113505 | 64 | 70 | 2.0 | 6.0 | 0.01 | 0.44 | 0.44 | 90 | 1012.6 |
| 20260901113004 | 65 | 68 | 3.0 | 6.0 | 0.01 | 0.44 | 0.44 | 85 | 1012.4 |
| 20260901112524 | 66 | 87 | 2.0 | 6.0 | 0.01 | 0.44 | 0.44 | 86 | 1012.4 |
| 20260901112005 | 65 | 85 | 1.0 | 6.0 | 0.01 | 0.44 | 0.44 | 91 | 1012.5 |
| 20260901111504 | 64 | 20 | 1.0 | 3.0 | 0.01 | 0.44 | 0.44 | 92 | 1012.5 |
| 20260901111004 | 63 | 4 | 2.0 | 9.0 | 0.01 | 0.44 | 0.44 | 91 | 1012.5 |
| 20260901110504 | 63 | 326 | 2.0 | 9.0 | 0.01 | 0.44 | 0.44 | 92 | 1012.5 |
| 20260901110005 | 63 | 310 | 2.0 | 4.0 | 0.01 | 0.44 | 0.44 | 93 | 1012.6 |
| 20260901105504 | 62 | 351 | 2.0 | 8.0 | 0.01 | 0.44 | 0.44 | 93 | 1012.3 |
| 20260901105003 | 62 | 43 | 2.0 | 8.0 | 0.02 | 0.44 | 0.44 | 92 | 1012.4 |
| 20260901104504 | 63 | 44 | 2.0 | 7.0 | 0.01 | 0.44 | 0.44 | 90 | 1012.5 |